Regional Weather Roundup
Issued by NWS State College, PA

Home | Current Version | Previous Version | Text Only | Print | Product List | Glossary On
Versions: 1 2 3 4 5 6 7 8 9 10 11 12 13 14 15 16 17 18 19 20 21 22 23 24 25 26 27 28 29 30 31 32 33 34 35 36 37 38 39 40 41 42 43 44 45 46 47 48 49 50
000
ASUS41 KCTP 201003
RWRCTP

REGIONAL WEATHER ROUNDUP
NATIONAL WEATHER SERVICE STATE COLLEGE PA
500 AM EST SAT DEC 20 2014

Note: "fair" indicates few or no clouds below 12,000 feet with no
significant weather and/or obstructions to visibility.

* = STATION THAT DOES NOT REPORT PRECIPITATION /E.G. RAIN...SNOW...ETC/
    THUNDER OR FOG.

PAZ002>004-007>009-013>016-020>023-029>032-201100-
WESTERN PENNSYLVANIA

CITY           SKY/WX    TMP DP  RH WIND       PRES   REMARKS
ERIE           CLOUDY    30  20  66 W5        30.28R
MEADVILLE      CLOUDY    27  19  72 VRB5      30.23R
FRANKLIN*      CLOUDY    25  18  74 W6        30.24S
NEW CASTLE       N/A     25  18  74 CALM      30.27S
BEAVER COUNTY  NOT AVBL
BUTLER*        MOCLDY    25  18  74 CALM      30.25S
PITTSBURGH INT CLOUDY    27  20  75 NE5       30.24R
PITTSBURGH     CLOUDY    27  17  66 CALM      30.23R
INDIANA*       CLOUDY    25  19  80 CALM      30.26S
LATROBE        PTCLDY    23  19  86 CALM      30.26R
WASHINGTON CO* NOT AVBL
$$

PAZ004>006-010>012-017>019-024>028-033>037-041-042-045-046-049>053-201100-
CENTRAL PENNSYLVANIA

CITY           SKY/WX    TMP DP  RH WIND       PRES   REMARKS
BRADFORD       CLOUDY    21  17  84 W7        30.18R WCI  12
DUBOIS         CLOUDY    23  18  81 NW6       30.19S
CLEARFIELD     CLOUDY    24  17  74 NW6       30.22S
JOHNSTOWN      CLOUDY    20  15  81 N5        30.15F WCI  13
ALTOONA        CLEAR     24  17  74 CALM      30.21S
STATE COLLEGE  CLOUDY    26  19  75 CALM      30.23S
WILLIAMSPORT   CLOUDY    31  20  63 W7        30.25R
SELINSGROVE    CLOUDY    30  19  63 W5        30.26R
FT INDIANTOWN  CLOUDY    30  19  61 N6        30.25R
CAPITAL CITY   CLOUDY    32  20  61 NW7       30.25S
HARRISBURG     CLOUDY    31  19  61 NW10      30.24S
YORK           CLOUDY    29  21  72 NW3       30.24R
$$

PAZ038>040-043-044-047-048-054-055-060>062-067>071-201100-
EASTERN PENNSYLVANIA

CITY           SKY/WX    TMP DP  RH WIND       PRES   REMARKS
SCRANTON       CLOUDY    29  20  69 N5        30.20R
MOUNT POCONO   CLOUDY    23  18  81 NW7       30.13R WCI  15
ALLENTOWN      CLOUDY    31  20  63 N5        30.24R
QUAKERTOWN*    CLOUDY    30  21  69 NW5       30.24R
READING        CLOUDY    32  19  58 N7        30.24R
LANCASTER      CLOUDY    31  21  66 NW8       30.23S
COATESVILLE    CLOUDY    32  25  74 NW8       30.22R
POTTSTOWN      CLOUDY    31  21  66 N5        30.25R
BLUE BELL      MOCLDY    32  27  80 CALM      30.23R
DOYLESTOWN     CLOUDY    29  22  75 N5        30.23R
WILLOW GROVE   NOT AVBL
NORTH PHILA    CLOUDY    34  21  59 N7        30.26R
PHILADELPHIA   CLOUDY    34  22  61 N8        30.26R
$$


USA.gov is the U.S. government's official web portal to all federal, state and local government web resources and services.